EW8484 Weather Reports


Display with metric or nautical units.
time (UTC)temp
F
wind
direction
speed
MPH
gust
MPH
rain 1hr
in
rain 24hr
in
rain mn
in
humidity
%
barometer
mb
20260505125026 63 170 3.0 6.0 0.00 0.00 0.00 38 1011.8
20260505124526 62 175 3.0 6.0 0.00 0.00 0.00 36 1011.9
20260505124027 62 196 2.0 4.0 0.00 0.00 0.00 37 1011.8
20260505123526 61 167 2.0 10.0 0.00 0.00 0.00 39 1011.6
20260505123036 61 167 2.0 5.0 0.00 0.00 0.00 37 1011.8
20260505122526 60 177 2.0 4.0 0.00 0.00 0.00 36 1011.7
20260505122026 59 181 1.0 3.0 0.00 0.00 0.00 37 1011.7
20260505121526 58 173 2.0 5.0 0.00 0.00 0.00 38 1011.8
20260505121026 57 215 1.0 4.0 0.00 0.00 0.00 39 1011.9
20260505120526 56 191 1.0 3.0 0.00 0.00 0.00 40 1011.9
20260505120026 56 188 1.0 3.0 0.00 0.00 0.00 40 1011.9
20260505115526 56 173 1.0 2.0 0.00 0.00 0.00 40 1012.1
20260505115026 55 193 1.0 3.0 0.00 0.00 0.00 42 1012.0
20260505114526 55 194 1.0 9.0 0.00 0.00 0.00 42 1012.0
20260505114046 54 0.0 0.0 0.00 0.00 0.00 44 1011.9
20260505113546 54 170 1.0 3.0 0.00 0.00 0.00 44 1012.0
20260505113027 54 257 1.0 4.0 0.00 0.00 0.00 45 1012.5
20260505112526 53 237 1.0 3.0 0.00 0.00 0.00 45 1012.1
20260505112046 53 198 1.0 3.0 0.00 0.00 0.00 46 1011.8
20260505111526 52 164 1.0 3.0 0.00 0.00 0.00 47 1011.7
20260505111026 51 143 2.0 8.0 0.00 0.00 0.00 48 1011.6
20260505110526 49 116 1.0 3.0 0.00 0.00 0.00 48 1011.6
20260505102026 45 0.0 0.0 0.00 0.00 0.00 47 1011.3
20260505101546 45 0.0 0.0 0.00 0.00 0.00 47 1011.2
20260505101026 45 0.0 0.0 0.00 0.00 0.00 47 1011.2
20260505100526 45 0.0 1.0 0.00 0.00 0.00 47 1011.1
20260505100026 45 0.0 0.0 0.00 0.00 0.00 48 1011.0
20260505095526 45 0.0 1.0 0.00 0.00 0.00 47 1010.9
20260505095026 45 0.0 0.0 0.00 0.00 0.00 47 1011.1
20260505094526 44 0.0 0.0 0.00 0.00 0.00 47 1011.1
20260505094025 44 0.0 0.0 0.00 0.00 0.00 47 1011.2
20260505093606 44 0.0 0.0 0.00 0.00 0.00 47 1011.2
20260505093025 44 0.0 0.0 0.00 0.00 0.00 47 1011.2
20260505092525 44 0.0 0.0 0.00 0.00 0.00 47 1011.2
20260505092025 44 0.0 0.0 0.00 0.00 0.00 46 1011.2
20260505091526 44 0.0 0.0 0.00 0.00 0.00 46 1011.3
20260505091026 44 0.0 0.0 0.00 0.00 0.00 45 1011.3
20260505090526 44 0.0 0.0 0.00 0.00 0.00 45 1011.2
20260505090046 44 0.0 0.0 0.00 0.00 0.00 45 1011.2
20260505085525 44 0.0 0.0 0.00 0.00 0.00 45 1011.2
20260505085046 44 0.0 0.0 0.00 0.00 0.00 44 1011.2
20260505084525 44 0.0 0.0 0.00 0.00 0.00 44 1011.2
20260505084025 44 0.0 0.0 0.00 0.00 0.00 44 1011.2
20260505083546 44 0.0 0.0 0.00 0.00 0.00 44 1011.3
20260505083026 44 0.0 0.0 0.00 0.00 0.00 44 1011.5
20260505082525 45 0.0 0.0 0.00 0.00 0.00 44 1011.4
20260505082025 45 0.0 0.0 0.00 0.00 0.00 44 1011.4
20260505081526 45 0.0 0.0 0.00 0.00 0.00 43 1011.4
20260505081106 45 0.0 1.0 0.00 0.00 0.00 43 1011.5
20260505080525 45 0.0 0.0 0.00 0.00 0.00 43 1011.3
20260505080025 45 0.0 1.0 0.00 0.00 0.00 42 1011.4
20260505075525 45 0.0 1.0 0.00 0.00 0.00 42 1011.4
20260505075026 45 0.0 2.0 0.00 0.00 0.00 43 1011.4
20260505074525 45 0.0 0.0 0.00 0.00 0.00 44 1011.4
20260505074026 45 0.0 1.0 0.00 0.00 0.00 44 1011.4
20260505073525 45 0.0 0.0 0.00 0.00 0.00 45 1011.5
20260505073025 45 0.0 1.0 0.00 0.00 0.00 48 1011.5
20260505072525 46 0.0 0.0 0.00 0.00 0.00 49 1011.6
20260505072025 46 0.0 0.0 0.00 0.00 0.00 51 1011.6
20260505071525 46 0.0 1.0 0.00 0.00 0.00 53 1011.5
20260505071025 46 0.0 0.0 0.00 0.00 0.00 56 1011.6
20260505070526 46 0.0 1.0 0.00 0.00 0.00 57 1011.6
20260505070027 46 0.0 0.0 0.00 0.00 0.00 58 1011.5
20260505065527 47 0.0 0.0 0.00 0.00 0.00 59 1011.6
20260505065025 47 0.0 0.0 0.00 0.00 0.00 60 1011.6
20260505064545 47 0.0 0.0 0.00 0.00 0.00 61 1011.7
20260505064027 48 0.0 0.0 0.00 0.00 0.00 62 1011.8
20260505063545 48 0.0 0.0 0.00 0.00 0.00 63 1011.7
20260505063028 49 0.0 0.0 0.00 0.00 0.00 63 1011.8
20260505062527 49 0.0 2.0 0.00 0.00 0.00 63 1011.9
20260505062027 49 0.0 1.0 0.00 0.00 0.00 62 1011.8
20260505061527 50 0.0 2.0 0.00 0.00 0.00 62 1011.9
20260505061047 50 254 1.0 2.0 0.00 0.00 0.00 62 1011.9
20260505060527 50 254 1.0 2.0 0.00 0.00 0.00 61 1011.9
20260505060027 50 254 1.0 2.0 0.00 0.00 0.00 61 1011.9
20260505055527 51 0.0 2.0 0.00 0.00 0.00 60 1011.9
20260505055027 51 0.0 2.0 0.00 0.00 0.00 60 1012.1
20260505054527 51 254 1.0 2.0 0.00 0.00 0.00 60 1012.1
20260505054027 51 254 1.0 2.0 0.00 0.00 0.00 60 1012.2
20260505053527 51 0.0 1.0 0.00 0.00 0.00 60 1012.1
20260505053025 51 0.0 1.0 0.00 0.00 0.00 60 1012.2
20260505052547 51 0.0 2.0 0.00 0.00 0.00 60 1012.2
20260505052027 51 0.0 2.0 0.00 0.00 0.00 60 1012.2
20260505051527 51 0.0 2.0 0.00 0.00 0.00 60 1012.3
20260505051027 52 0.0 1.0 0.00 0.00 0.00 59 1012.3
20260505050527 52 238 1.0 2.0 0.00 0.00 0.00 59 1012.2
20260505041548 53 171 1.0 3.0 0.00 0.00 0.00 57 1012.5
20260505041027 53 0.0 1.0 0.00 0.00 0.00 57 1012.6
20260505040528 53 0.0 1.0 0.00 0.00 0.00 57 1012.5
20260505040027 53 142 1.0 3.0 0.00 0.00 0.00 57 1012.5
20260505035548 53 0.0 2.0 0.00 0.00 0.00 57 1012.4
20260505035047 53 0.0 3.0 0.00 0.00 0.00 57 1012.4
20260505034527 53 18 1.0 4.0 0.00 0.00 0.00 56 1012.3
20260505034027 53 313 1.0 5.0 0.00 0.00 0.00 56 1012.2
20260505033527 53 0.0 2.0 0.00 0.00 0.00 56 1012.3
20260505033033 53 0.0 1.0 0.00 0.00 0.00 55 1012.3
20260505032608 53 0.0 3.0 0.00 0.00 0.00 55 1012.3
20260505032027 54 0.0 2.0 0.00 0.00 0.00 55 1012.3
20260505031528 54 0.0 1.0 0.00 0.00 0.00 55 1012.3
20260505031025 54 174 1.0 2.0 0.00 0.00 0.00 55 1012.1
20260505030527 54 204 1.0 4.0 0.00 0.00 0.00 55 1012.1
20260505030027 54 0.0 1.0 0.00 0.00 0.00 54 1012.1
20260505025527 54 0.0 2.0 0.00 0.00 0.00 53 1012.2
20260505025027 54 0.0 2.0 0.00 0.00 0.00 53 1012.1
20260505024527 54 254 1.0 3.0 0.00 0.00 0.00 53 1012.2
20260505024027 55 165 1.0 4.0 0.00 0.00 0.00 52 1012.2
20260505023547 55 0.0 1.0 0.00 0.00 0.00 52 1012.2
20260505023047 55 188 1.0 2.0 0.00 0.00 0.00 52 1012.1
20260505022527 55 188 1.0 3.0 0.00 0.00 0.00 52 1012.2
20260505022047 55 179 1.0 2.0 0.00 0.00 0.00 51 1012.3
20260505021527 56 0.0 1.0 0.00 0.00 0.00 51 1012.2
20260505021027 56 0.0 2.0 0.00 0.00 0.00 51 1012.3
20260505020527 56 169 1.0 4.0 0.00 0.00 0.00 50 1012.1
20260505020027 56 169 1.0 4.0 0.00 0.00 0.00 50 1012.2
20260505015527 57 168 1.0 4.0 0.00 0.00 0.00 49 1012.1
20260505015027 57 170 2.0 4.0 0.00 0.00 0.00 48 1012.3
20260505014527 57 188 1.0 3.0 0.00 0.00 0.00 48 1012.3
20260505014027 57 187 1.0 2.0 0.00 0.00 0.00 47 1012.3
20260505013527 57 0.0 2.0 0.00 0.00 0.00 47 1012.3
20260505013027 57 0.0 2.0 0.00 0.00 0.00 46 1012.0
20260505012527 58 158 1.0 4.0 0.00 0.00 0.00 46 1012.0
20260505012027 58 150 2.0 4.0 0.00 0.00 0.00 46 1011.8
20260505011527 58 188 1.0 3.0 0.00 0.00 0.00 46 1011.8
20260505011027 58 201 1.0 3.0 0.00 0.00 0.00 46 1011.6
20260505010527 59 166 1.0 5.0 0.00 0.00 0.00 45 1011.6
20260505010037 59 182 1.0 4.0 0.00 0.00 0.00 45 1011.4
20260505005547 59 174 1.0 5.0 0.00 0.00 0.00 45 1011.5
20260505005027 59 215 1.0 4.0 0.00 0.00 0.00 44 1011.2
20260505004527 59 214 1.0 3.0 0.00 0.00 0.00 44 1011.1
20260505004047 59 209 1.0 4.0 0.00 0.00 0.00 44 1011.0
20260505003527 60 173 1.0 4.0 0.00 0.00 0.00 43 1011.0
20260505003027 60 210 1.0 4.0 0.00 0.00 0.00 42 1010.9
20260505002547 60 217 2.0 5.0 0.00 0.00 0.00 41 1010.7
20260505002027 61 171 2.0 5.0 0.00 0.00 0.00 41 1010.6
20260505001527 61 208 1.0 5.0 0.00 0.00 0.00 41 1010.5
20260505001027 61 202 2.0 4.0 0.00 0.00 0.00 40 1010.4
20260505000527 62 265 1.0 3.0 0.00 0.00 0.00 40 1010.4
20260505000047 62 229 2.0 4.0 0.00 0.00 0.00 39 1010.2
20260504235527 62 212 2.0 6.0 0.00 0.00 0.00 38 1010.2
20260504235107 62 192 2.0 7.0 0.00 0.00 0.00 38 1010.2
20260504234547 62 188 2.0 7.0 0.00 0.00 0.00 39 1010.1
20260504234027 63 195 2.0 5.0 0.00 0.00 0.00 38 1010.1
20260504233527 63 177 1.0 4.0 0.00 0.00 0.00 38 1009.9
20260504233027 63 234 2.0 6.0 0.00 0.00 0.00 38 1009.7
20260504232527 63 247 2.0 9.0 0.00 0.00 0.00 37 1009.4
20260504232026 63 303 2.0 4.0 0.00 0.00 0.00 37 1009.4
20260504231527 64 176 2.0 4.0 0.00 0.00 0.00 36 1009.3
20260504231026 64 181 2.0 5.0 0.00 0.00 0.00 36 1009.3
20260504230527 64 189 2.0 4.0 0.00 0.00 0.00 35 1009.2
20260504230047 65 177 3.0 6.0 0.00 0.00 0.00 35 1009.1
20260504225526 65 175 3.0 8.0 0.00 0.00 0.00 34 1009.1
20260504225027 65 184 3.0 6.0 0.00 0.00 0.00 34 1009.0
20260504224527 66 188 3.0 6.0 0.00 0.00 0.00 33 1008.9
20260504224027 66 188 3.0 9.0 0.00 0.00 0.00 31 1009.0
20260504223526 67 203 2.0 10.0 0.00 0.00 0.00 31 1009.0
20260504223027 68 204 2.0 5.0 0.00 0.00 0.00 30 1009.0
20260504222527 69 196 3.0 6.0 0.00 0.00 0.00 29 1008.9
20260504222026 70 224 2.0 7.0 0.00 0.00 0.00 26 1008.9
20260504221527 70 339 2.0 5.0 0.00 0.00 0.00 24 1008.9
20260504221026 70 226 1.0 4.0 0.00 0.00 0.00 23 1008.8
20260504220527 70 233 2.0 5.0 0.00 0.00 0.00 24 1009.0
20260504220047 70 214 2.0 4.0 0.00 0.00 0.00 23 1009.0
20260504215527 70 192 2.0 6.0 0.00 0.00 0.00 24 1008.9
20260504215027 70 226 2.0 5.0 0.00 0.00 0.00 23 1008.9
20260504214527 70 222 2.0 5.0 0.00 0.00 0.00 23 1009.0
20260504214047 71 271 2.0 3.0 0.00 0.00 0.00 23 1009.2
20260504213526 71 290 2.0 5.0 0.00 0.00 0.00 22 1009.0
20260504213026 71 318 3.0 8.0 0.00 0.00 0.00 23 1009.0
20260504212527 72 180 2.0 4.0 0.00 0.00 0.00 23 1009.1
20260504212027 72 220 3.0 7.0 0.00 0.00 0.00 21 1009.1
20260504211526 72 351 2.0 4.0 0.00 0.00 0.00 23 1009.1
20260504211027 72 0.0 1.0 0.00 0.00 0.00 23 1009.0
20260504210526 71 213 2.0 9.0 0.00 0.00 0.00 22 1009.1
20260504210027 71 168 2.0 8.0 0.00 0.00 0.00 22 1009.0
20260504205526 71 191 3.0 9.0 0.00 0.00 0.00 22 1008.9
20260504205026 71 159 2.0 5.0 0.00 0.00 0.00 24 1008.8
20260504204526 70 332 2.0 8.0 0.00 0.00 0.00 24 1009.1
20260504204026 71 288 2.0 4.0 0.00 0.00 0.00 24 1009.2
20260504203526 71 165 3.0 7.0 0.00 0.00 0.00 24 1008.9
20260504203027 70 233 2.0 4.0 0.00 0.00 0.00 26 1009.1
20260504202546 71 203 2.0 8.0 0.00 0.00 0.00 23 1009.0
20260504202026 71 205 2.0 4.0 0.00 0.00 0.00 23 1009.2
20260504201547 72 198 3.0 8.0 0.00 0.00 0.00 23 1009.1
20260504201026 73 201 1.0 7.0 0.00 0.00 0.00 21 1009.1
20260504200526 72 196 2.0 7.0 0.00 0.00 0.00 23 1009.1
20260504200027 72 209 2.0 6.0 0.00 0.00 0.00 24 1009.2
20260504195526 72 231 2.0 7.0 0.00 0.00 0.00 25 1009.1
20260504195027 72 182 2.0 4.0 0.00 0.00 0.00 24 1009.2
20260504194526 72 271 3.0 11.0 0.00 0.00 0.00 22 1009.2
20260504194046 72 210 3.0 10.0 0.00 0.00 0.00 24 1009.3
20260504193526 72 166 2.0 13.0 0.00 0.00 0.00 21 1009.3
20260504193047 72 2 4.0 13.0 0.00 0.00 0.00 23 1009.3
20260504192526 73 49 4.0 10.0 0.00 0.00 0.00 22 1009.5
20260504192026 72 74 2.0 6.0 0.00 0.00 0.00 25 1009.3
20260504191527 72 315 2.0 5.0 0.00 0.00 0.00 25 1009.5
20260504191107 72 215 3.0 9.0 0.00 0.00 0.00 21 1009.5
20260504190547 72 288 2.0 6.0 0.00 0.00 0.00 21 1009.5
20260504190026 72 195 2.0 7.0 0.00 0.00 0.00 21 1009.6
20260504185546 72 243 3.0 8.0 0.00 0.00 0.00 24 1009.6
20260504185026 72 355 3.0 8.0 0.00 0.00 0.00 26 1009.6
20260504184526 71 174 3.0 5.0 0.00 0.00 0.00 21 1009.5
20260504184026 71 146 3.0 7.0 0.00 0.00 0.00 26 1009.6
20260504183526 71 255 3.0 8.0 0.00 0.00 0.00 25 1009.8
20260504183026 71 222 3.0 8.0 0.00 0.00 0.00 22 1009.7
20260504182526 71 253 3.0 10.0 0.00 0.00 0.00 21 1009.8
20260504182026 71 227 3.0 13.0 0.00 0.00 0.00 21 1009.7
20260504181527 71 181 3.0 9.0 0.00 0.00 0.00 25 1009.7
20260504181047 71 167 3.0 7.0 0.00 0.00 0.00 25 1009.9
20260504180526 71 205 4.0 8.0 0.00 0.00 0.00 22 1009.9
20260504180026 71 148 3.0 9.0 0.00 0.00 0.00 22 1009.8
20260504175527 71 171 4.0 13.0 0.00 0.00 0.00 22 1009.9
20260504175026 71 167 3.0 9.0 0.00 0.00 0.00 23 1009.9
20260504174526 71 223 3.0 8.0 0.00 0.00 0.00 21 1009.9
20260504174026 71 208 3.0 9.0 0.00 0.00 0.00 25 1010.0
20260504173526 70 178 3.0 7.0 0.00 0.00 0.00 26 1009.9
20260504173026 70 297 3.0 6.0 0.00 0.00 0.00 21 1010.0
20260504172526 70 267 3.0 5.0 0.00 0.00 0.00 23 1010.2
20260504172026 70 242 3.0 9.0 0.00 0.00 0.00 19 1010.3
20260504171526 70 153 3.0 6.0 0.00 0.00 0.00 29 1010.1
20260504171046 69 88 2.0 8.0 0.00 0.00 0.00 26 1010.2
20260504170526 69 114 3.0 8.0 0.00 0.00 0.00 25 1010.5
20260504151026 65 212 3.0 8.0 0.00 0.00 0.00 26 1011.7
20260504150526 65 238 3.0 7.0 0.00 0.00 0.00 30 1011.9
20260504141026 62 233 3.0 6.0 0.00 0.00 0.00 33 1012.3
20260504140526 62 224 3.0 7.0 0.00 0.00 0.00 34 1012.3